DW0268 Weather Reports


Display with metric or nautical units.
time (UTC)temp
F
wind
direction
speed
MPH
gust
MPH
rain 1hr
in
rain 24hr
in
rain mn
in
humidity
%
barometer
mb
20260504191611 80 218 29.0 40.0 0.00 0.00 0.00 41 1011.8
20260504190126 80 215 23.0 30.0 0.00 0.00 0.00 44 1011.9
20260504184558 80 238 28.0 34.0 0.00 0.00 0.00 43 1012.0
20260504183105 80 237 24.0 35.0 0.00 0.00 0.00 41 1012.3
20260504181558 79 226 27.0 36.0 0.00 0.00 0.00 41 1012.3
20260504180054 79 231 25.0 33.0 0.00 0.00 0.00 43 1012.4
20260504174551 79 224 24.0 33.0 0.00 0.00 0.00 42 1012.6
20260504173049 79 213 25.0 40.0 0.00 0.00 0.00 41 1012.8
20260504171547 79 228 24.0 34.0 0.00 0.00 0.00 42 1013.1
20260504081537 63 190 9.0 12.0 0.00 0.00 0.00 69 1013.8
20260504050012 62 203 6.0 10.0 0.00 0.00 0.00 71 1015.8
20260504044508 63 207 7.0 12.0 0.00 0.00 0.00 69 1016.0
20260504043008 63 208 8.0 12.0 0.00 0.00 0.00 69 1016.1
20260504041510 63 190 9.0 14.0 0.00 0.00 0.00 68 1016.1
20260504040008 64 190 9.0 13.0 0.00 0.00 0.00 67 1016.1
20260504034507 64 187 8.0 14.0 0.00 0.00 0.00 66 1016.2
20260504033008 65 188 9.0 15.0 0.00 0.00 0.00 64 1016.3
20260504031605 66 201 10.0 14.0 0.00 0.00 0.00 63 1016.3
20260504030005 66 190 9.0 13.0 0.00 0.00 0.00 63 1016.3
20260504024504 66 195 8.0 15.0 0.00 0.00 0.00 62 1016.2
20260504023004 66 196 9.0 12.0 0.00 0.00 0.00 61 1016.4
20260504021503 66 198 8.0 12.0 0.00 0.00 0.00 60 1016.3
20260504020001 67 205 8.0 12.0 0.00 0.00 0.00 59 1016.2
20260504014606 67 193 9.0 14.0 0.00 0.00 0.00 58 1016.0
20260504013100 67 188 8.0 11.0 0.00 0.00 0.00 56 1016.2
20260504011558 68 196 7.0 9.0 0.00 0.00 0.00 55 1016.0
20260504010105 68 198 7.0 11.0 0.00 0.00 0.00 53 1015.8
20260504004556 69 202 10.0 18.0 0.00 0.00 0.00 51 1016.0
20260504003057 70 212 12.0 24.0 0.00 0.00 0.00 50 1016.1
20260504001554 71 215 16.0 24.0 0.00 0.00 0.00 48 1016.2
20260504000132 72 212 13.0 25.0 0.00 0.00 0.00 47 1016.3
20260503234557 72 213 16.0 25.0 0.00 0.00 0.00 46 1016.5
20260503233048 72 222 16.0 24.0 0.00 0.00 0.00 45 1016.6
20260503231547 72 211 15.0 24.0 0.00 0.00 0.00 44 1016.7
20260503230049 72 229 16.0 25.0 0.00 0.00 0.00 43 1016.9
20260503224545 73 227 19.0 24.0 0.00 0.00 0.00 41 1017.0
20260503223044 73 200 15.0 25.0 0.00 0.00 0.00 41 1017.2
20260503221550 74 219 14.0 25.0 0.00 0.00 0.00 38 1017.3
20260503220042 73 223 15.0 25.0 0.00 0.00 0.00 39 1017.6
20260503214543 73 220 16.0 23.0 0.00 0.00 0.00 38 1017.6
20260503213037 73 218 16.0 23.0 0.00 0.00 0.00 36 1017.8
20260503211534 73 223 11.0 23.0 0.00 0.00 0.00 35 1018.0
20260503210032 73 211 11.0 20.0 0.00 0.00 0.00 36 1018.3
20260503204528 72 210 18.0 24.0 0.00 0.00 0.00 35 1018.8
20260503203039 72 223 14.0 26.0 0.00 0.00 0.00 36 1019.0
20260503201532 71 213 17.0 25.0 0.00 0.00 0.00 38 1019.5
20260503200022 71 209 13.0 25.0 0.00 0.00 0.00 40 1019.6
20260503194518 70 226 16.0 25.0 0.00 0.00 0.00 43 1020.1
20260503193019 70 222 13.0 22.0 0.00 0.00 0.00 44 1020.3